User: anonymous   Login
Location: ?????
(32.7281°N, 34.9563°E)
Time: 11:42:20
(UTC+00:00)
Language:

Cosmos 1300 - Orbit

View from above orbital plane
View from above orbital plane
View from above satellite
View from above satellite

Ground track
Ground track

The orbit data is extracted from the following two-line orbital elements,

1 12785U 81082A   21019.01931302  .00000232  00000-0  98434-5 0  9994
2 12785  82.5017 215.1270 0002112  54.8999  98.9747 15.17918799150777
Epoch (UTC): 19 January 2021 00:27:48
Eccentricity: 0.0002112
inclination: 82.5017°
perigee height: 510 km
apogee height: 513 km
right ascension of ascending node: 215.1270°
argument of perigee: 54.8999°
revolutions per day: 15.17918799
mean anomaly at epoch: 98.9747°
orbit number at epoch: 15077

The dashed part of the orbit path shows where the satellite is in the earth's shadow,  

DLR